FENGYUN 3D (43010 NORAD) Tracking and Keplerian Element Data

This shows tracking and keplerian element data for the satellite.

Feedback or suggestion? Click here.




ElementValue
Catalog43010
NameFENGYUN 3D
Epoch Orbit37432
Epoch Day35.14467363
Epoch Year2025
RAAN357.5694
Inclination98.9452
Eccentricity0.0002334
Argument of Perigee54.6178
Mean Anonmoly305.5216
Mean Motion14.19557633
Decay Rate2.96E-06
L11 43010U 17072A 25035.14467363 .00000296 00000+0 16179-3 0 9997
L22 43010 98.9452 357.5694 0002334 54.6178 305.5216 14.19557633374324



Live tracking and technical data element details for FENGYUN 3D (NORAD 43010). FENGYUN 3D can be tracked NOW for your location showing map with azimuth and elevation plus other details from your city location.







IsCatalogInMostPopularTable: catalog: 43010, numindb: 747
Update: records affected: 1



GetName: 43010 FENGYUN 3D

Hit Count: updated at: Sat, 17 May 2025 05:20:38 GMT